Middletown, PA

5:07 PM EST on November 14, 2019 (GMT -0500)
Harrisburg International

Weather History for KMDT - October, 2019

Change the Weather History Date:

Monday, October 21, 2019

  Actual Average Record
Temperature  
Mean Temperature 60 °F 53 °F  
Max Temperature 68 °F 63 °F 84 °F (1947)
Min Temperature 51 °F 43 °F 29 °F (1972)
Degree Days  
Heating Degree Days 6 12  
Month to date heating degree days 137 198  
Since 1 July heating degree days 140 270  
Cooling Degree Days 0 0  
Month to date cooling degree days 29 10  
Year to date cooling degree days 1445 1003  
Growing Degree Days 10 (Base 50)    
Moisture  
Dew Point 50 °F    
Average Humidity 79    
Maximum Humidity 90    
Minimum Humidity 51    
Precipitation  
Precipitation 0.00 in 0.10 in 2.74 in (1995)
Month to date precipitation 3.08 2.35  
Year to date precipitation 37.00 33.36  
Snow  
Snow 0.00 in 0.00 in T in (1972)
Month to date snowfall 0.0 0.0  
Since 1 July snowfall 0.0 0.0  
Since 1 September snowfall 0.0 0.0  
Snow Depth 0.00 in    
Sea Level Pressure  
Sea Level Pressure 30.06 in    
Wind  
Wind Speed 3 mph ()    
Max Wind Speed 12 mph    
Max Gust Speed 15 mph    
Visibility 9.7 miles    
Events      
T = Trace of Precipitation, MM = Missing Value Source: Averaged Metar Reports

Daily Weather History Graph

Daily Weather History Graph

Search for Another Location

Airport or City:

Astronomy

Oct. 21, 2019 Rise Set
Actual Time 7:23 AM EDT 6:18 PM EDT
Civil Twilight 6:56 AM EDT 6:46 PM EDT
Nautical Twilight 6:24 AM EDT 7:18 PM EDT
Astronomical Twilight 5:53 AM EDT 7:49 PM EDT
Moon No Moon Rise 2:40 PM EDT (10/21)
Length of Visible Light 11h 50m
Length of Day
10h 55m
Waning Gibbous, 48% of the Moon is Illuminated
Oct 21
Waning Gibbous
Oct 27
New
Nov 4
First Quarter
Nov 12
Full
Nov 19
Last Quarter

Hourly Weather History & Observations

Time (EDT) Temp. Dew Point Humidity Pressure Visibility Wind Dir Wind Speed Gust Speed Precip Events Conditions
12:56 AM 53.1 °F 48.9 °F 86% 30.02 in 8.0 mi NW 9.2 mph - N/A   Overcast
1:56 AM 53.1 °F 48.9 °F 86% 30.02 in 9.0 mi NW 3.5 mph - N/A   Overcast
2:56 AM 53.1 °F 48.9 °F 86% 30.03 in 9.0 mi Calm Calm - N/A   Overcast
3:56 AM 53.1 °F 48.9 °F 86% 30.03 in 10.0 mi NW 3.5 mph - N/A   Overcast
4:56 AM 53.1 °F 48.9 °F 86% 30.04 in 10.0 mi NNE 3.5 mph - N/A   Mostly Cloudy
5:56 AM 52.0 °F 46.9 °F 83% 30.06 in 10.0 mi NW 3.5 mph - N/A   Overcast
6:56 AM 52.0 °F 48.0 °F 86% 30.06 in 10.0 mi Calm Calm - N/A   Overcast
7:56 AM 53.1 °F 48.9 °F 86% 30.08 in 8.0 mi Calm Calm - N/A   Overcast
8:56 AM 54.0 °F 50.0 °F 86% 30.10 in 10.0 mi Calm Calm - N/A   Overcast
9:56 AM 55.0 °F 48.0 °F 77% 30.12 in 10.0 mi NNE 4.6 mph - N/A   Overcast
10:56 AM 57.0 °F 48.9 °F 74% 30.12 in 10.0 mi NNW 5.8 mph - N/A   Scattered Clouds
2:56 PM 66.9 °F 48.0 °F 51% 30.04 in 10.0 mi Calm Calm - N/A   Partly Cloudy
3:56 PM 66.9 °F 48.9 °F 52% 30.03 in 10.0 mi SE 4.6 mph - N/A   Partly Cloudy
4:56 PM 66.9 °F 50.0 °F 54% 30.04 in 10.0 mi Calm Calm - N/A   Partly Cloudy
5:56 PM 62.1 °F 52.0 °F 70% 30.04 in 10.0 mi Calm Calm - N/A   Partly Cloudy
6:56 PM 57.0 °F 53.1 °F 87% 30.05 in 10.0 mi Calm Calm - N/A   Partly Cloudy
7:56 PM 53.1 °F 50.0 °F 89% 30.05 in 10.0 mi Calm Calm - N/A   Partly Cloudy
8:56 PM 54.0 °F 51.1 °F 90% 30.06 in 10.0 mi SE 4.6 mph - N/A   Partly Cloudy
9:56 PM 57.0 °F 51.1 °F 81% 30.06 in 10.0 mi ESE 5.8 mph - N/A   Mostly Cloudy
10:56 PM 57.9 °F 51.1 °F 78% 30.06 in 10.0 mi East 6.9 mph - N/A   Overcast
11:56 PM 57.9 °F 50.0 °F 75% 30.05 in 10.0 mi ESE 10.4 mph - N/A   Overcast